Location: Limerick
(52.6800°N, 8.6400°W)
Time: 06:45:21
(UTC+01:00)

Amateur Radio Satellites - All Passes

Search period start: 27 May 2015 06:15
Search period end: 28 May 2015 06:15
Location: Limerick, 52.6800°N, 8.6400°W

Satellite Date Start Highest point End Downlink Frequencies (MHz)
Time Altitude Azimuth
PHONESAT 2.4 27 May 06:16:38 06:17:47 11° 178° (S) 06:18:57 2401.200-2431.200
SO-50 27 May 06:29:09 06:33:40 38° 329° (NNW) 06:38:18 436.795
HORYU 2 27 May 06:34:25 06:38:26 33° 296° (WNW) 06:42:24 437.375
JAS-2 27 May 06:37:15 06:42:12 43° 295° (WNW) 06:47:07 435.910
CUTE-I 27 May 06:37:58 06:41:01 16° 84° (E) 06:44:17 437.470
YUBILEINY 27 May 06:41:44 06:47:13 19° 73° (ENE) 06:53:02 435.215
Gurwin Techsat 1B 27 May 06:43:53 06:46:14 13° 313° (NW) 06:48:25 435.225
Cubesat XI-IV 27 May 06:57:51 07:01:57 22° 89° (E) 07:06:10 437.490
STRAND 1 27 May 07:02:25 07:07:23 56° 68° (ENE) 07:12:25 437.568
AO-7 27 May 07:12:35 07:20:43 57° 301° (WNW) 07:28:48 29.400- 29.500
PCSat 27 May 07:14:00 07:17:47 19° 9° (N) 07:21:35 145.827
PRISM 27 May 07:15:28 07:19:33 76° 73° (ENE) 07:23:40 437.425
CUBESAT XI-V 27 May 07:25:27 07:29:55 50° 261° (W) 07:34:28 437.345
AIST 1 27 May 07:27:29 07:31:02 24° 65° (ENE) 07:34:39
M-CUBED/EXP-1 PRIME 27 May 07:34:51 07:38:58 81° 249° (WSW) 07:42:47 437.505
Cosmos 2491 27 May 07:35:46 07:44:41 87° 261° (W) 07:53:30 435.465 / 435.565
AUBIESAT-1 27 May 07:43:09 07:47:14 76° 250° (WSW) 07:51:00 437.475
SO-50 27 May 08:11:42 08:15:27 21° 353° (N) 08:19:15 436.795
CUTE-I 27 May 08:16:37 08:22:01 84° 103° (ESE) 08:27:26 437.470
YUBILEINY 27 May 08:33:57 08:42:38 73° 96° (E) 08:51:21 435.215
Cubesat XI-IV 27 May 08:37:16 08:42:38 70° 290° (WNW) 08:47:59 437.490
STRAND 1 27 May 08:42:40 08:46:57 26° 268° (W) 08:51:13 437.568
BRITE-PL 27 May 08:48:45 08:53:34 28° 89° (E) 08:58:19 437.365/2234.400
GOMX 1 27 May 08:52:07 08:55:59 20° 85° (E) 08:59:52 467.674
PRISM 27 May 08:53:19 08:55:36 14° 273° (W) 08:57:43 437.425
PCSat 27 May 08:57:47 09:02:46 35° 34° (NE) 09:07:45 145.827
AIST 1 27 May 09:04:44 09:08:57 47° 265° (W) 09:13:10
AO-7 27 May 09:06:05 09:11:59 21° 325° (NW) 09:17:41 29.400- 29.500
M-CUBED/EXP-1 PRIME 27 May 09:13:30 09:14:24 10° 267° (W) 09:15:06 437.505
SEEDS 27 May 09:16:45 09:18:43 13° 85° (E) 09:20:52 437.485
RS-15 27 May 09:22:36 09:32:06 38° 110° (ESE) 09:42:04 29.354- 29.394
TIGRISAT 27 May 09:26:54 09:29:20 14° 54° (NE) 09:31:53 435.000
COMPASS 1 27 May 09:29:48 09:32:04 15° 86° (E) 09:34:28 437.405
CINEMA 3 27 May 09:31:57 09:34:21 14° 83° (E) 09:36:53 145.822/145.860
Cosmos 2491 27 May 09:33:42 09:40:28 25° 283° (WNW) 09:46:55 435.465 / 435.565
AAUSAT CUBESAT 2 27 May 09:41:42 09:44:19 16° 88° (E) 09:47:01 437.432
HO-68 27 May 09:44:37 09:51:11 38° 95° (E) 09:57:46 435.675
UNISAT 6 27 May 09:46:13 09:49:34 20° 59° (ENE) 09:52:59 437.425
Cosmos 2504 27 May 09:49:59 09:56:27 28° 82° (E) 10:02:48 435.465 / 435.565
QB50P1 27 May 09:50:18 09:51:33 11° 52° (NE) 09:52:56 145.935-145.965
POLYITAN 1 27 May 09:51:59 09:53:31 12° 53° (NE) 09:55:12 437.675
DOVE 4 27 May 09:52:27 09:57:20 39° 94° (E) 10:02:00 437.250
SO-50 27 May 09:53:25 09:57:30 25° 17° (NNE) 10:01:36 436.795
CUTE-I 27 May 09:57:32 10:01:34 22° 305° (NW) 10:05:30 437.470
DELFI C3 27 May 10:10:00 10:11:11 11° 84° (E) 10:12:34 145.870
Cubesat XI-IV 27 May 10:18:39 10:21:56 16° 310° (NW) 10:25:05 437.490
NANOSAT C BR1 27 May 10:19:36 10:22:34 19° 58° (ENE) 10:25:37 145.865
CUBEBUG 2 27 May 10:22:49 10:26:09 20° 88° (E) 10:29:29 437.445
CANX-2 27 May 10:24:50 10:29:04 73° 103° (ESE) 10:33:16 2200.000
ZACube-1 27 May 10:25:04 10:27:19 14° 85° (E) 10:29:42 437.345
BRITE-PL 27 May 10:26:50 10:32:29 62° 290° (WNW) 10:37:56 437.365/2234.400
QB50P2 27 May 10:27:15 10:30:33 22° 60° (ENE) 10:33:54 145.880/145.840
ANTELSAT 27 May 10:28:15 10:32:39 42° 67° (ENE) 10:37:00 437.575/2403.000
CUTE 1.7 + AOD 2 27 May 10:28:22 10:32:36 72° 102° (ESE) 10:36:49 437.475
GOMX 1 27 May 10:29:19 10:34:50 80° 287° (WNW) 10:40:04 467.674
YUBILEINY 27 May 10:32:27 10:40:21 35° 301° (WNW) 10:48:08 435.215
Oscar 11 27 May 10:36:31 10:40:14 28° 93° (E) 10:43:57 145.826/435.025
POPSAT HIP 1 27 May 10:39:09 10:42:44 27° 63° (ENE) 10:46:23 437.405
DUCHIFAT 1 27 May 10:41:02 10:44:37 27° 63° (ENE) 10:48:17 145.980
PCSat 27 May 10:41:12 10:46:37 67° 236° (SW) 10:51:59 145.827
SEEDS 27 May 10:50:58 10:55:11 83° 286° (WNW) 10:59:22 437.485
AO-7 27 May 10:59:07 11:01:39 12° 352° (N) 11:04:07 29.400- 29.500
TIGRISAT 27 May 11:00:44 11:05:25 76° 72° (ENE) 11:10:03 435.000
BUGSAT 1 27 May 11:03:44 11:07:24 31° 64° (ENE) 11:11:10 437.445
COMPASS 1 27 May 11:04:09 11:08:20 75° 285° (WNW) 11:12:27 437.405
CINEMA 3 27 May 11:07:33 11:12:26 87° 105° (ESE) 11:17:03 145.822/145.860
UWE-3 27 May 11:09:33 11:13:49 42° 97° (E) 11:17:56 435.000/436.395/437.385
50 SAT 27 May 11:15:30 11:16:36 11° 85° (E) 11:17:53 437.505
AAUSAT CUBESAT 2 27 May 11:16:17 11:20:24 65° 288° (WNW) 11:24:30 437.432
FUNcube-1 27 May 11:19:27 11:23:38 41° 97° (E) 11:27:41 145.935
UNISAT 6 27 May 11:21:14 11:25:56 72° 257° (WSW) 11:30:34 437.425
AISAT 27 May 11:21:28 11:23:50 14° 86° (E) 11:26:22 437.250
QB50P1 27 May 11:22:23 11:26:38 62° 71° (ENE) 11:30:55 145.935-145.965
POLYITAN 1 27 May 11:24:23 11:28:41 66° 71° (ENE) 11:32:59 437.675
DOVE 4 27 May 11:30:15 11:35:06 39° 295° (WNW) 11:39:42 437.250
HO-68 27 May 11:32:16 11:39:18 59° 297° (WNW) 11:46:16 435.675
RS-15 27 May 11:32:36 11:43:36 83° 317° (NW) 11:55:02 29.354- 29.394
SO-50 27 May 11:34:00 11:38:57 60° 40° (NE) 11:43:52 436.795
Cosmos 2504 27 May 11:41:01 11:49:15 78° 282° (WNW) 11:56:57 435.465 / 435.565
DELFI C3 27 May 11:42:58 11:47:00 89° 86° (E) 11:51:02 145.870
DANDE 27 May 11:52:13 11:53:10 10° 67° (ENE) 11:54:41 436.750
HUMSAT D 27 May 11:53:23 11:57:25 44° 98° (E) 12:01:24 437.325/437.525
NANOSAT C BR1 27 May 11:53:42 11:57:59 69° 257° (WSW) 12:02:18 145.865
CUBEBUG 2 27 May 11:58:47 12:03:17 59° 290° (WNW) 12:07:35 437.445
ZACube-1 27 May 11:59:57 12:04:23 82° 286° (WNW) 12:08:40 437.345
UKube-1 27 May 12:01:33 12:05:48 49° 100° (E) 12:10:02 .
CANX-2 27 May 12:01:43 12:04:33 17° 302° (WNW) 12:07:16 2200.000
QB50P2 27 May 12:01:53 12:06:08 56° 259° (W) 12:10:24 145.880/145.840
CUTE 1.7 + AOD 2 27 May 12:05:14 12:08:05 17° 301° (WNW) 12:10:50 437.475
ANTELSAT 27 May 12:05:22 12:09:33 31° 266° (W) 12:13:39 437.575/2403.000
BRITE-PL 27 May 12:06:42 12:10:00 16° 310° (NW) 12:13:04 437.365/2234.400
GOMX 1 27 May 12:08:29 12:12:09 18° 307° (NW) 12:15:37 467.674
DX 1 27 May 12:10:23 12:14:47 64° 102° (ESE) 12:19:09 434.975-435.025
Oscar 11 27 May 12:12:29 12:16:33 40° 293° (WNW) 12:20:34 145.826/435.025
POPSAT HIP 1 27 May 12:14:18 12:18:25 44° 261° (W) 12:22:36 437.405
DUCHIFAT 1 27 May 12:16:10 12:20:16 43° 262° (W) 12:24:24 145.980
CUSAT 1 27 May 12:17:42 12:22:54 20° 77° (ENE) 12:28:37 437.405
Oscar 19 27 May 12:18:53 12:22:18 18° 53° (NE) 12:25:51 437.125/150
CUBEBUG 1 27 May 12:23:04 12:26:54 28° 93° (E) 12:30:46 437.445
VELOX 1 27 May 12:24:56 12:29:18 48° 99° (E) 12:33:40 145.980
PCSat 27 May 12:26:28 12:29:09 13° 255° (WSW) 12:31:35 145.827
SEEDS 27 May 12:28:16 12:30:21 13° 304° (NW) 12:32:20 437.485
ESTCUBE 1 27 May 12:28:18 12:32:27 35° 96° (E) 12:36:37 437.505/2401.250
ITAMSAT 1 27 May 12:36:38 12:37:12 10° 44° (NE) 12:37:58 435.822/435.867
YUBILEINY 27 May 12:37:59 12:40:50 11° 331° (NNW) 12:43:20 435.215
BUGSAT 1 27 May 12:38:57 12:42:49 36° 264° (W) 12:46:45 437.445
TIGRISAT 27 May 12:39:33 12:42:44 17° 273° (W) 12:45:44 435.000
COMPASS 1 27 May 12:41:36 12:43:20 12° 305° (NW) 12:44:56 437.405
CINEMA 3 27 May 12:45:44 12:49:00 18° 305° (NW) 12:52:03 145.822/145.860
UWE-3 27 May 12:46:21 12:50:12 28° 297° (WNW) 12:53:54 435.000/436.395/437.385
AO-7 27 May 12:47:00 12:50:54 14° 21° (NNE) 12:54:56 29.400- 29.500
50 SAT 27 May 12:48:03 12:52:00 88° 286° (WNW) 12:55:52 437.505
AAUSAT CUBESAT 2 27 May 12:54:08 12:55:16 11° 307° (NW) 12:56:16 437.432
FUNcube-1 27 May 12:56:03 12:59:49 28° 297° (WNW) 13:03:27 145.935
AISAT 27 May 12:56:35 13:01:08 86° 286° (WNW) 13:05:38 437.250
QB50P1 27 May 12:59:53 13:02:56 18° 271° (W) 13:05:55 145.935-145.965
SPROUT 27 May 13:01:40 13:05:00 22° 90° (E) 13:08:24 437.525
POLYITAN 1 27 May 13:02:05 13:05:04 18° 272° (W) 13:07:57 437.675
UNISAT 6 27 May 13:02:07 13:03:37 11° 278° (W) 13:04:53 437.425
GONETS M04 27 May 13:04:09 13:11:35 33° 82° (E) 13:19:13
Gurwin Techsat 1B 27 May 13:12:02 13:15:20 17° 52° (NE) 13:18:46 435.225
SO-50 27 May 13:14:53 13:19:18 32° 240° (WSW) 13:23:37 436.795
DELFI C3 27 May 13:19:27 13:21:35 14° 303° (WNW) 13:23:35 145.870
HO-68 27 May 13:21:01 13:25:47 19° 319° (NW) 13:30:21 435.675
TISAT 1 27 May 13:24:15 13:27:50 25° 93° (E) 13:31:26 437.305
DANDE 27 May 13:27:18 13:34:15 42° 88° (E) 13:42:09 436.750
HUMSAT D 27 May 13:29:29 13:32:59 25° 298° (WNW) 13:36:22 437.325/437.525
CUBEBUG 2 27 May 13:37:38 13:39:05 11° 309° (NW) 13:40:21 437.445
ZACube-1 27 May 13:37:43 13:40:05 14° 305° (NW) 13:42:18 437.345
Cosmos 2504 27 May 13:37:58 13:44:04 22° 307° (NW) 13:49:43 435.465 / 435.565
UKube-1 27 May 13:38:07 13:41:43 25° 299° (WNW) 13:45:15 .
RS-15 27 May 13:46:58 13:57:37 48° 347° (NNW) 14:08:44 29.354- 29.394
DX 1 27 May 13:47:20 13:50:40 21° 301° (WNW) 13:53:54 434.975-435.025
Oscar 19 27 May 13:55:48 14:01:01 85° 76° (ENE) 14:06:16 437.125/150
CUSAT 1 27 May 13:56:39 14:04:19 71° 98° (E) 14:12:39 437.405
CUBEBUG 1 27 May 13:59:11 14:03:25 43° 293° (WNW) 14:07:37 437.445
VELOX 1 27 May 14:01:53 14:05:40 26° 298° (WNW) 14:09:22 145.980
ESTCUBE 1 27 May 14:05:11 14:09:21 36° 295° (WNW) 14:13:28 437.505/2401.250
ITAMSAT 1 27 May 14:10:41 14:15:32 43° 65° (ENE) 14:20:27 435.822/435.867
Cosmos 2499 27 May 14:20:40 14:25:17 18° 77° (ENE) 14:30:04 435.465 / 435.565
ITUPSAT 1 27 May 14:21:18 14:24:39 19° 88° (E) 14:28:08 437.325
50 SAT 27 May 14:24:19 14:26:08 13° 304° (NW) 14:27:50 437.505
HORYU 2 27 May 14:28:00 14:29:58 13° 53° (NE) 14:32:06 437.375
BEESAT 27 May 14:28:39 14:32:20 22° 90° (E) 14:36:07 436.000
AO-7 27 May 14:34:14 14:41:15 33° 47° (NE) 14:48:26 29.400- 29.500
AISAT 27 May 14:34:23 14:37:06 16° 305° (NW) 14:39:43 437.250
SWISSCUBE 27 May 14:36:57 14:41:02 28° 93° (E) 14:45:10 437.505
SPROUT 27 May 14:37:10 14:41:26 53° 290° (WNW) 14:45:39 437.525
Gurwin Techsat 1B 27 May 14:49:16 14:54:34 77° 72° (ENE) 14:59:56 435.225
GONETS M04 27 May 14:58:58 15:07:50 74° 285° (WNW) 15:16:43
TISAT 1 27 May 14:59:42 15:03:48 43° 292° (WNW) 15:07:50 437.305
DANDE 27 May 15:09:38 15:17:16 62° 291° (WNW) 15:25:49 436.750
JAS-2 27 May 15:10:23 15:15:54 34° 62° (ENE) 15:20:59 435.910
STARS 27 May 15:33:39 15:35:24 12° 84° (E) 15:37:22 437.465
Oscar 19 27 May 15:37:35 15:41:07 18° 274° (W) 15:44:30 437.125/150
CUSAT 1 27 May 15:40:23 15:47:43 38° 301° (WNW) 15:55:20 437.405
ITAMSAT 1 27 May 15:50:24 15:55:10 35° 265° (W) 15:59:55 435.822/435.867
ITUPSAT 1 27 May 15:58:19 16:03:06 70° 289° (WNW) 16:07:52 437.325
HORYU 2 27 May 16:01:26 16:05:54 70° 72° (ENE) 16:10:23 437.375
RS-15 27 May 16:01:48 16:12:44 51° 19° (NNE) 16:24:13 29.354- 29.394
KKS-1 27 May 16:04:54 16:09:01 34° 96° (E) 16:13:07 437.445
BEESAT 27 May 16:05:53 16:10:37 60° 290° (WNW) 16:15:18 436.000
Cosmos 2499 27 May 16:09:26 16:17:23 74° 97° (E) 16:24:47 435.465 / 435.565
SWISSCUBE 27 May 16:14:31 16:19:08 48° 293° (WNW) 16:23:43 437.505
O/OREOS (USA 219) 27 May 16:20:16 16:24:16 32° 108° (ESE) 16:28:18 437.305
AO-7 27 May 16:25:01 16:33:22 86° 251° (WSW) 16:41:46 29.400- 29.500
CUTE-I 27 May 16:30:04 16:31:13 11° 44° (NE) 16:32:33 437.470
Gurwin Techsat 1B 27 May 16:31:18 16:35:14 20° 273° (W) 16:39:02 435.225
YUBILEINY 27 May 16:40:36 16:45:29 16° 39° (NE) 16:50:42 435.215
Cubesat XI-IV 27 May 16:48:52 16:51:35 15° 49° (NE) 16:54:28 437.490
JAS-2 27 May 16:54:33 17:00:55 55° 259° (W) 17:06:34 435.910
DANDE 27 May 16:56:24 17:02:31 22° 316° (NW) 17:08:42 436.750
GONETS M04 27 May 16:59:44 17:06:36 23° 311° (NW) 17:13:13
STARS 27 May 17:08:11 17:12:40 84° 104° (ESE) 17:17:06 437.465
CUSAT 1 27 May 17:28:58 17:33:08 14° 326° (NW) 17:37:01 437.405
MOZHAYETS 4 27 May 17:36:20 17:40:18 29° 93° (E) 17:44:19
ITUPSAT 1 27 May 17:37:41 17:40:15 14° 308° (NW) 17:42:40 437.325
HORYU 2 27 May 17:39:58 17:43:04 18° 272° (W) 17:46:02 437.375
KKS-1 27 May 17:41:33 17:45:41 35° 295° (WNW) 17:49:44 437.445
BEESAT 27 May 17:45:34 17:47:36 12° 310° (NW) 17:49:29 436.000
SWISSCUBE 27 May 17:55:14 17:55:59 10° 313° (NW) 17:56:34 437.505
O/OREOS (USA 219) 27 May 17:59:20 18:03:38 41° 309° (NW) 18:07:55 437.305
Cosmos 2499 27 May 18:04:26 18:11:17 31° 300° (WNW) 18:17:38 435.465 / 435.565
CUTE-I 27 May 18:05:06 18:10:06 44° 65° (ENE) 18:15:11 437.470
RS-15 27 May 18:14:56 18:26:28 88° 228° (SW) 18:38:32 29.354- 29.394
BEESAT 3 27 May 18:17:57 18:20:22 16° 114° (ESE) 18:22:54 437.485
AO-7 27 May 18:20:55 18:27:30 24° 273° (W) 18:33:51 29.400- 29.500
Cubesat XI-IV 27 May 18:25:33 18:30:47 62° 69° (ENE) 18:36:05 437.490
BRITE-PL 27 May 18:30:23 18:32:35 13° 47° (NE) 18:35:02 437.365/2234.400
HO-68 27 May 18:35:31 18:39:45 17° 39° (NE) 18:44:10 435.675
YUBILEINY 27 May 18:36:40 18:45:05 51° 68° (ENE) 18:53:32 435.215
STARS 27 May 18:45:41 18:48:35 17° 304° (NW) 18:51:21 437.465
JAS-2 27 May 18:46:14 18:47:21 10° 280° (W) 18:48:03 435.910
Cosmos 2491 27 May 18:50:10 18:56:39 25° 77° (ENE) 19:03:24 435.465 / 435.565
AIST 2 27 May 19:01:10 19:02:31 11° 111° (ESE) 19:04:02 435.215
BEESAT 2 27 May 19:05:46 19:09:27 33° 122° (ESE) 19:13:13 435.950
STRAND 1 27 May 19:08:51 19:10:37 12° 82° (E) 19:12:39 437.568
MOZHAYETS 4 27 May 19:13:21 19:17:41 42° 293° (WNW) 19:21:59
CUBESAT XI-V 27 May 19:16:09 19:20:10 28° 92° (E) 19:24:14 437.345
DOVE 4 27 May 19:28:16 19:31:20 16° 52° (NE) 19:34:36 437.250
Cosmos 2504 27 May 19:34:09 19:38:02 15° 44° (NE) 19:42:08 435.465 / 435.565
O/OREOS (USA 219) 27 May 19:42:37 19:44:20 12° 332° (NNW) 19:45:57 437.305
CUTE-I 27 May 19:45:27 19:50:20 36° 265° (W) 19:55:13 437.470
CANX-2 27 May 19:49:22 19:52:07 17° 59° (ENE) 19:54:57 2200.000
CUTE 1.7 + AOD 2 27 May 19:52:53 19:55:36 17° 58° (ENE) 19:58:24 437.475
BEESAT 3 27 May 19:53:41 19:57:48 88° 307° (NW) 20:01:58 437.485
BRITE-PL 27 May 20:04:50 20:09:55 51° 68° (ENE) 20:15:21 437.365/2234.400
GOMX 1 27 May 20:05:16 20:10:05 37° 64° (ENE) 20:15:08 467.674
Cubesat XI-IV 27 May 20:06:57 20:11:21 25° 269° (W) 20:15:41 437.490
SEEDS 27 May 20:14:09 20:17:20 21° 61° (ENE) 20:20:34 437.485
HO-68 27 May 20:19:12 20:26:05 53° 62° (ENE) 20:33:01 435.675
COMPASS 1 27 May 20:26:28 20:29:43 23° 62° (ENE) 20:33:02 437.405
PRISM 27 May 20:27:10 20:31:15 54° 101° (E) 20:35:21 437.425
RS-15 27 May 20:27:54 20:37:47 33° 253° (WSW) 20:47:41 29.354- 29.394
YUBILEINY 27 May 20:33:45 20:42:00 49° 271° (W) 20:50:09 435.215
AIST 2 27 May 20:36:08 20:40:23 68° 129° (SE) 20:44:40 435.215
AAUSAT CUBESAT 2 27 May 20:37:59 20:41:23 25° 63° (ENE) 20:44:50 437.432
CINEMA 3 27 May 20:38:23 20:42:36 28° 61° (ENE) 20:46:51 145.822/145.860
UWE-3 27 May 20:38:24 20:40:43 14° 54° (NE) 20:43:10 435.000/436.395/437.385
BEESAT 2 27 May 20:43:26 20:47:27 47° 322° (NW) 20:51:30 435.950
Cosmos 2491 27 May 20:43:35 20:52:25 87° 99° (E) 21:01:21 435.465 / 435.565
M-CUBED/EXP-1 PRIME 27 May 20:45:32 20:48:16 23° 101° (E) 20:50:59 437.505
STRAND 1 27 May 20:45:46 20:50:55 69° 102° (ESE) 20:56:04 437.568
FUNcube-1 27 May 20:47:21 20:49:22 13° 54° (NE) 20:51:33 145.935
AUBIESAT-1 27 May 20:53:10 20:55:56 24° 101° (E) 20:58:43 437.475
CUBESAT XI-V 27 May 20:53:19 20:57:49 46° 292° (WNW) 21:02:19 437.345
DELFI C3 27 May 21:02:33 21:05:11 17° 59° (ENE) 21:07:53 145.870
DOVE 4 27 May 21:03:04 21:08:15 71° 72° (ENE) 21:13:36 437.250
HUMSAT D 27 May 21:18:09 21:19:45 12° 54° (NE) 21:21:29 437.325/437.525
CANX-2 27 May 21:23:19 21:27:35 75° 257° (WSW) 21:31:52 2200.000
ZACube-1 27 May 21:26:02 21:29:46 26° 62° (ENE) 21:33:34 437.345
CUBEBUG 2 27 May 21:26:07 21:30:28 36° 66° (ENE) 21:34:49 437.445
Cosmos 2504 27 May 21:26:22 21:33:32 56° 71° (ENE) 21:40:35 435.465 / 435.565
CUTE 1.7 + AOD 2 27 May 21:26:47 21:31:03 76° 257° (WSW) 21:35:19 437.475
UKube-1 27 May 21:28:13 21:30:42 15° 55° (NE) 21:33:19 .
BEESAT 3 27 May 21:32:54 21:36:19 24° 335° (NNW) 21:39:44 437.485
Oscar 11 27 May 21:36:46 21:40:54 45° 68° (ENE) 21:45:03 145.826/435.025
DX 1 27 May 21:37:08 21:40:10 19° 58° (ENE) 21:43:19 434.975-435.025
AIST 1 27 May 21:39:55 21:44:10 73° 98° (E) 21:48:30
GOMX 1 27 May 21:43:06 21:48:09 44° 264° (W) 21:53:23 467.674
BRITE-PL 27 May 21:43:59 21:48:42 32° 269° (W) 21:53:38 437.365/2234.400
SEEDS 27 May 21:48:40 21:52:50 55° 260° (W) 21:56:59 437.485
VELOX 1 27 May 21:54:00 21:56:37 16° 55° (NE) 21:59:22 145.980
ESTCUBE 1 27 May 22:00:12 22:01:53 12° 52° (NE) 22:03:43 437.505/2401.250
COMPASS 1 27 May 22:01:04 22:05:09 50° 261° (W) 22:09:15 437.405
PRISM 27 May 22:03:12 22:06:26 22° 300° (WNW) 22:09:35 437.425
50 SAT 27 May 22:05:14 22:07:49 17° 59° (ENE) 22:10:29 437.505
HO-68 27 May 22:07:13 22:14:02 43° 263° (W) 22:20:49 435.675
UWE-3 27 May 22:11:52 22:16:32 72° 73° (ENE) 22:21:12 435.000/436.395/437.385
AAUSAT CUBESAT 2 27 May 22:12:49 22:16:49 44° 262° (W) 22:20:49 437.432
CINEMA 3 27 May 22:14:34 22:19:30 56° 260° (W) 22:24:29 145.822/145.860
AIST 2 27 May 22:15:29 22:19:18 30° 331° (NNW) 22:23:07 435.215
DANDE 27 May 22:19:54 22:24:55 17° 38° (NE) 22:29:46 436.750
M-CUBED/EXP-1 PRIME 27 May 22:20:13 22:23:15 31° 300° (WNW) 22:26:11 437.505
FUNcube-1 27 May 22:20:25 22:24:59 69° 73° (ENE) 22:29:31 145.935
BEESAT 2 27 May 22:23:29 22:26:27 18° 344° (NNW) 22:29:24 435.950
AISAT 27 May 22:24:26 22:28:11 27° 62° (ENE) 22:32:01 437.250
STRAND 1 27 May 22:25:38 22:29:44 24° 303° (WNW) 22:33:46 437.568
AUBIESAT-1 27 May 22:27:50 22:30:48 29° 301° (WNW) 22:33:43 437.475
YUBILEINY 27 May 22:34:03 22:36:43 11° 294° (WNW) 22:38:51 435.215
DELFI C3 27 May 22:35:52 22:39:53 67° 258° (WSW) 22:43:55 145.870
DOVE 4 27 May 22:42:29 22:46:34 22° 273° (W) 22:50:37 437.250
Cosmos 2491 27 May 22:43:02 22:50:36 30° 305° (NW) 22:58:03 435.465 / 435.565
CUSAT 1 27 May 22:47:31 22:53:28 24° 48° (NE) 22:58:46 437.405
TIGRISAT 27 May 22:49:52 22:50:04 10° 81° (E) 22:50:30 435.000
HUMSAT D 27 May 22:50:29 22:54:47 69° 73° (ENE) 22:59:04 437.325/437.525
ZACube-1 27 May 23:01:24 23:05:54 52° 261° (W) 23:10:23 437.345
UKube-1 27 May 23:01:55 23:06:16 89° 75° (ENE) 23:10:39 .
CUBEBUG 2 27 May 23:02:42 23:07:10 37° 265° (W) 23:11:34 437.445
CANX-2 27 May 23:03:46 23:04:23 10° 278° (W) 23:04:46 2200.000
GONETS M04 27 May 23:05:20 23:12:12 25° 51° (NE) 23:19:13
CUTE 1.7 + AOD 2 27 May 23:07:03 23:07:49 10° 278° (W) 23:08:22 437.475
UNISAT 6 27 May 23:08:30 23:11:12 16° 87° (E) 23:14:00 437.425
DX 1 27 May 23:11:38 23:15:59 71° 257° (WSW) 23:20:23 434.975-435.025
BEESAT 3 27 May 23:13:06 23:15:36 15° 358° (N) 23:18:04 437.485
Oscar 11 27 May 23:13:40 23:17:18 25° 268° (W) 23:20:52 145.826/435.025
AIST 1 27 May 23:19:38 23:22:26 16° 300° (WNW) 23:25:08
Cosmos 2504 27 May 23:20:11 23:26:40 36° 274° (W) 23:32:59 435.465 / 435.565
CUBEBUG 1 27 May 23:24:44 23:28:55 47° 68° (ENE) 23:33:11 437.445
VELOX 1 27 May 23:28:07 23:32:35 89° 74° (ENE) 23:37:06 145.980
ESTCUBE 1 27 May 23:33:32 23:37:58 64° 71° (ENE) 23:42:26 437.505/2401.250
NANOSAT C BR1 27 May 23:34:08 23:36:15 14° 86° (E) 23:38:31 145.865
50 SAT 27 May 23:38:08 23:42:08 67° 258° (WSW) 23:46:07 437.505
QB50P2 27 May 23:42:11 23:44:55 17° 88° (E) 23:47:46 145.880/145.840
UWE-3 27 May 23:50:18 23:53:36 18° 273° (W) 23:56:45 435.000/436.395/437.385
ANTELSAT 27 May 23:50:57 23:55:05 37° 96° (E) 23:59:08 437.575/2403.000
POPSAT HIP 1 27 May 23:53:57 23:57:11 21° 90° (E) 00:00:28 437.405
DUCHIFAT 1 27 May 23:55:20 23:58:33 21° 90° (E) 00:01:51 145.980
AIST 2 27 May 23:56:18 23:59:06 17° 354° (N) 00:01:53 435.215
FUNcube-1 27 May 23:58:33 00:01:48 18° 272° (W) 00:04:55 145.935
AISAT 28 May 00:00:17 00:04:36 46° 261° (W) 00:08:57 437.250
SPROUT 28 May 00:01:18 00:05:14 35° 65° (ENE) 00:09:13 437.525
DANDE 28 May 00:02:36 00:10:37 49° 64° (ENE) 00:17:15 436.750
BEESAT 2 28 May 00:03:19 00:05:57 16° 8° (N) 00:08:36 435.950
BEESAT 28 May 00:07:44 00:08:20 10° 48° (NE) 00:09:08 436.000
SWISSCUBE 28 May 00:14:53 00:16:47 13° 50° (NE) 00:18:50 437.505
BUGSAT 1 28 May 00:15:16 00:18:41 23° 91° (E) 00:22:10 437.445
ISS 28 May 00:20:05 00:21:56 15° 143° (SE) 00:23:52 145.825
TISAT 1 28 May 00:21:50 00:25:50 41° 67° (ENE) 00:29:53 437.305
TIGRISAT 28 May 00:23:20 00:27:48 72° 103° (ESE) 00:32:07 435.000
HUMSAT D 28 May 00:28:08 00:31:02 17° 272° (W) 00:33:47 437.325/437.525
CUSAT 1 28 May 00:29:56 00:37:42 80° 74° (ENE) 00:43:49 437.405
QB50P1 28 May 00:37:22 00:41:35 51° 100° (E) 00:45:45 145.935-145.965
POLYITAN 1 28 May 00:39:45 00:44:00 54° 100° (E) 00:48:11 437.675
UKube-1 28 May 00:41:00 00:43:08 13° 274° (W) 00:45:05 .
UNISAT 6 28 May 00:44:08 00:48:36 73° 287° (WNW) 00:52:54 437.425
O/OREOS (USA 219) 28 May 00:44:45 00:48:45 31° 48° (NE) 00:52:45 437.305
Cosmos 2491 28 May 00:50:42 00:51:34 10° 336° (NNW) 00:52:07 435.465 / 435.565
BEESAT 3 28 May 00:51:42 00:54:55 21° 22° (NNE) 00:58:08 437.485
GONETS M04 28 May 01:01:53 01:10:46 80° 77° (ENE) 01:19:32
CUBEBUG 1 28 May 01:01:54 01:05:32 25° 268° (W) 01:09:09 437.445
VELOX 1 28 May 01:07:32 01:09:52 14° 275° (W) 01:12:03 145.980
NANOSAT C BR1 28 May 01:08:25 01:12:45 84° 287° (WNW) 01:17:01 145.865
ESTCUBE 1 28 May 01:12:04 01:15:19 19° 271° (W) 01:18:29 437.505/2401.250
QB50P2 28 May 01:17:02 01:21:20 68° 288° (WNW) 01:25:34 145.880/145.840
ANTELSAT 28 May 01:27:53 01:31:49 31° 296° (WNW) 01:35:38 437.575/2403.000
PCSat 28 May 01:28:57 01:33:42 33° 115° (ESE) 01:38:32 145.827
POPSAT HIP 1 28 May 01:29:11 01:33:24 54° 291° (WNW) 01:37:35 437.405
DUCHIFAT 1 28 May 01:30:31 01:34:43 54° 290° (WNW) 01:38:51 145.980
ITUPSAT 1 28 May 01:33:32 01:38:00 42° 66° (ENE) 01:42:31 437.325
KKS-1 28 May 01:35:22 01:37:07 12° 52° (NE) 01:39:02 437.445
AIST 2 28 May 01:35:53 01:39:06 20° 18° (NNE) 01:42:18 435.215
SPROUT 28 May 01:37:24 01:41:20 33° 265° (W) 01:45:17 437.525
BEESAT 28 May 01:40:38 01:45:11 48° 68° (ENE) 01:49:48 436.000
BEESAT 2 28 May 01:41:27 01:45:12 31° 31° (NNE) 01:48:55 435.950
DANDE 28 May 01:46:10 01:53:56 48° 270° (W) 02:00:16 436.750
SWISSCUBE 28 May 01:49:07 01:53:47 61° 70° (ENE) 01:58:31 437.505
BUGSAT 1 28 May 01:50:16 01:54:25 48° 291° (WNW) 01:58:32 437.445
Cosmos 2499 28 May 01:53:20 01:59:49 37° 64° (ENE) 02:06:21 435.465 / 435.565
ISS 28 May 01:54:41 01:57:50 47° 161° (SSE) 02:00:59 145.825
TISAT 1 28 May 01:58:05 02:01:45 27° 267° (W) 02:05:25 437.305
TIGRISAT 28 May 02:00:58 02:04:05 19° 303° (WNW) 02:07:03 435.000
Oscar 19 28 May 02:02:09 02:05:47 20° 87° (E) 02:09:33 437.125/150
CUSAT 1 28 May 02:13:31 02:19:29 26° 279° (W) 02:24:24 437.405
QB50P1 28 May 02:13:44 02:17:12 24° 299° (WNW) 02:20:34 145.935-145.965
POLYITAN 1 28 May 02:16:13 02:19:37 23° 299° (WNW) 02:22:55 437.675
UNISAT 6 28 May 02:22:33 02:24:38 13° 307° (NW) 02:26:35 437.425
O/OREOS (USA 219) 28 May 02:24:03 02:28:21 45° 249° (WSW) 02:32:37 437.305
BEESAT 3 28 May 02:29:28 02:33:35 69° 44° (NE) 02:37:38 437.485
STARS 28 May 02:35:27 02:39:00 24° 61° (ENE) 02:42:38 437.465
NANOSAT C BR1 28 May 02:45:38 02:47:58 14° 305° (NW) 02:50:11 145.865
QB50P2 28 May 02:54:46 02:56:30 12° 307° (NW) 02:58:04 145.880/145.840
GONETS M04 28 May 02:59:31 03:06:51 30° 280° (W) 03:13:55
Gurwin Techsat 1B 28 May 03:00:09 03:03:55 20° 87° (E) 03:07:50 435.225
KKS-1 28 May 03:08:32 03:12:59 65° 71° (ENE) 03:17:28 437.445
MOZHAYETS 4 28 May 03:11:10 03:11:56 10° 50° (NE) 03:12:54
PCSat 28 May 03:11:32 03:16:55 59° 316° (NW) 03:22:18 145.827
ITUPSAT 1 28 May 03:11:46 03:16:02 32° 266° (W) 03:20:17 437.325
AIST 2 28 May 03:14:19 03:18:32 54° 41° (NE) 03:22:40 435.215
BEESAT 28 May 03:19:12 03:23:17 27° 267° (W) 03:27:19 436.000
BEESAT 2 28 May 03:19:27 03:23:32 58° 232° (SW) 03:27:32 435.950
SWISSCUBE 28 May 03:28:22 03:32:05 22° 270° (W) 03:35:44 437.505
ISS 28 May 03:30:50 03:34:06 76° 181° (S) 03:37:23 145.825
DANDE 28 May 03:32:26 03:35:08 12° 292° (WNW) 03:37:15 436.750
SO-50 28 May 03:35:02 03:38:42 23° 116° (ESE) 03:42:32 436.795
Oscar 19 28 May 03:40:36 03:45:48 76° 289° (WNW) 03:50:57 437.125/150
Cosmos 2499 28 May 03:46:27 03:53:20 54° 268° (W) 04:00:11 435.465 / 435.565
ITAMSAT 1 28 May 03:56:25 04:01:32 53° 100° (E) 04:06:40 435.822/435.867
JAS-2 28 May 03:58:52 04:00:55 12° 82° (E) 04:03:15 435.910
BEESAT 3 28 May 04:08:07 04:11:11 20° 243° (WSW) 04:14:09 437.485
STARS 28 May 04:10:50 04:15:12 53° 260° (W) 04:19:36 437.465
AO-7 28 May 04:20:34 04:26:42 23° 86° (E) 04:33:06 29.400- 29.500
Gurwin Techsat 1B 28 May 04:39:14 04:44:35 78° 288° (WNW) 04:49:55 435.225
MOZHAYETS 4 28 May 04:43:49 04:48:16 53° 70° (ENE) 04:52:45
KKS-1 28 May 04:46:50 04:50:05 19° 271° (W) 04:53:16 437.445
Cosmos 2491 28 May 04:50:15 04:56:12 20° 44° (NE) 05:02:24 435.465 / 435.565
CUBESAT XI-V 28 May 04:52:37 04:53:07 10° 49° (NE) 04:53:49 437.345
AIST 2 28 May 04:53:15 04:56:54 28° 241° (WSW) 05:00:28 435.215
PCSat 28 May 04:57:06 05:01:25 23° 339° (NNW) 05:05:42 145.827
ISS 28 May 05:07:14 05:10:23 43° 200° (SSW) 05:13:30 145.825
SO-50 28 May 05:14:00 05:18:48 76° 317° (NW) 05:23:45 436.795
Oscar 19 28 May 05:21:11 05:24:25 17° 308° (NW) 05:27:30 437.125/150
HORYU 2 28 May 05:23:15 05:27:40 61° 102° (ESE) 05:32:03 437.375
PHONESAT 2.4 28 May 05:34:28 05:35:32 11° 175° (S) 05:36:37 2401.200-2431.200
ITAMSAT 1 28 May 05:36:18 05:40:51 30° 300° (WNW) 05:45:21 435.822/435.867
JAS-2 28 May 05:41:57 05:47:12 77° 103° (ESE) 05:52:28 435.910
Cosmos 2499 28 May 05:42:57 05:44:55 11° 289° (WNW) 05:46:27 435.465 / 435.565
PRISM 28 May 05:49:57 05:52:02 14° 55° (NE) 05:54:16 437.425
YUBILEINY 28 May 05:57:38 05:58:44 10° 64° (ENE) 06:00:26 435.215
M-CUBED/EXP-1 PRIME 28 May 06:05:52 06:08:14 16° 53° (NE) 06:10:36 437.505
